Погода Свободный

Погода Свободный : погода сейчас, прогноз погоды и архив. Всё, что Вы хотите узнать о погоде Свободный!

Хотите узнать прогноз погоды Свободный? Тогда Вам сюда: Погода Свободный

Поиск расширенной информации на нашем сайте:

Другие новости

Новости СМИ2

Главная страница сайта

Новости сайта

02.10.2013

Напоминаем, что на нашем новом сайте вы можете получить высокодетализированные прогнозы погоды по пунктам России, СНГ и мира (включающие важные для авиации метеовеличины, такие как направление и скорость ветра, видимость, явления погоды, количество и форма облачности, нижняя и верхняя граница облачности), а также ознакомиться с разнообразными материалами по авиационной метеорологии и подборкой полезных ссылок на эту тему.

Сайт Метеоцентр.Азия посвящён разработке технологий оптимизации авиаметеорологического обслуживания, включая проектирование и перспективное создание нескольких автоматизированных авиаметеорологических систем:
- система выпуска высокодетальных прогностических карт явлений погоды для нижнего воздушного пространства по России и ближнему зарубежью;
- система верификации прогнозов TAF (выпускаемых синоптиками официальных АМСГ РФ и ближнего зарубежья) и AUTOTAF (выпускаемых сайтом Метеоцентр.Азия) - выявление ошибок, онлайн-сопоставление с фактической погодой METAR, автоматическое внесение коррективов в прогнозы при резком отклонении фактической погоды от прогноза, подсчёт оправдываемости прогнозов по элементам и в целом;
- система обработки, анализа и отображения авиаметеорологической информации для применения провайдерами метеорологической информации.


Погода Свободный - сегодня

Время (UTC), дата Ветер
(°,м/с) 
Видим.   Явления Облачность Т
(°С)
Тd
(°С)
f(%) Тe
(°С)
Pmin
(гПа)
dP
(гПа)
Po
(мм)
O2
(г/м3)
Тmin Tmax R s Состояние
почвы
15 26.06.17 тихо ()   50000 м    10/0 верхняя 
[Ci fib]
+16 +15.3 96 +26  1004.1  736  277           
18 26.06.17 тихо ()   50000 м    4/0 средняя 
[Ac trans]
+16.2 +15.6 96 +26  1004.8  0.7  736  277           
21 26.06.17 010 (С) 20000 м  {ливн. осадки}  10/10 540 м 
[Sc]
+15.8 +14.5 92 +25  1006.2  1.4  737  278           
00 27.06.17 190 (Ю) 4000 м  слаб. ливневой дождь  10/10 330 м кучево-дожд. 
[Cb calv]
+18.3 +17.1 93 +32  1006.8  0.8  738  275  +15.6    0.9    влажная 
03 27.06.17 110 (В) 20000 м  {ливн. осадки}  10/10 180 м 
[St]
+17.6 +16.4 93 +31  1007.3  0.4  738  276           
06 27.06.17 110 (В) 20000 м  {ливн. осадки, морось}  10/10 240 м 
[St]
+19.2 +16.9 87 +33  1007.5  0.3  738  274           
09 27.06.17 120 (ЮВ) 20000 м    10/6 600 м кучево-дожд., верхняя 
[Cb calv|Ci fib]
+20.9 +17.7 82 +35  1007.3  738  272           
12 27.06.17 140 (ЮВ) 20000 м    10/0 верхняя 
[Ci sp]
+18.1 +16.6 91 +32  1007.2  -0.3  738  275    +21.1  0.4     
15 27.06.17 130 (ЮВ) 50000 м    10/0 верхняя 
[Ci fib]
+16.4 +15.5 94 +28  1007.7  0.3  738  277           
18 27.06.17 090 (В) 6000 м  дымка  10/0 средняя, верхняя 
[Ac trans|Ci sp]
+14.5 +14 97 +23  1007.1  -0.7  738  279           
21 27.06.17 110 (В) 0500 м  слаб. морось{туман}  ?/?  
+15.2 +14.6 96 +24  1006.3  -0.8  737  278           
00 28.06.17 110 (В) 2000 м  гроза, ливневой дождь  10/10 100 м кучево-дожд. 
[Cb cap]
+15.9 +15.3 96 +27  1006.4  0.2  737  277  +14.5      мокрая 
03 28.06.17 130 (ЮВ) 2{10}  20000 м  {гроза, ливн. осадки}  10/10 180 м 
[St]
+17.1 +16.5 96 +30  1004.5  -1.8  736  275           
06 28.06.17 100 (В) 20000 м  {гроза, ливн. осадки}  10/10 240 м кучево-дожд. 
[Cb calv]
+18.8 +17.5 92 +34  1003.8  -0.4  736  273           
09 28.06.17 090 (В) 20000 м  {ливн. осадки}  10/8 570 м кучево-дожд., верхняя 
[Cb calv|Cs]
+19.9 +18.3 91 +37  1002.9  -0.8  735  272           
12 28.06.17 тихо ()   20000 м  {ливн. осадки}  10/10 150 м 
[St]
+19.5 +18.4 93 +35  1002.4  -0.6  735  272    +20     
15 28.06.17 340 (С) 7000 м  слаб. ливневой дождь  10/10 180 м кучево-дожд. 
[Cb calv]
+18.7 +17.9 95 +35  1002.6  0.2  735  273           
18 28.06.17 310 (СЗ) 5000 м  дымка{ливн. осадки}  10/10 120 м 
[St]
+18 +17.4 96 +33  1002.2  -0.4  734  274           
21 28.06.17 300 (СЗ) 20000 м    9/9 150 м 
[St]
+17.6 +16.8 95 +31  1002.7  0.4  735  274           
00 29.06.17 300 (СЗ) 20000 м    9/9 360 м 
[St]
+19 +16.7 87 +32  1002.5  -0.2  735  273  +17.3      влажная 
03 29.06.17 320 (СЗ) 20000 м    9/9 500 м 
[Sc]
+20.1 +16.7 81 +32  1002.6  0.2  735  272           
06 29.06.17 330 (СЗ) 20000 м    10/8 750 м средняя 
[Sc|Ac trans]
+22 +16.9 73 +35  1001.7  -0.7  734  270           
09 29.06.17 290 (З) 20000 м    9/1 1000 м верхняя 
[Sc diur, vesp|Ci sp]
+22.6 +17.1 71 +36  1000.7  -0.9  734  269           
12 29.06.17 270 (З) 20000 м    5/0 средняя, верхняя 
[Ac cuf|Ci sp]
+19.3 +17 87 +33  1000.7  -0.3  733  272    +23.6       
15 29.06.17 300 (СЗ) 50000 м    6/0 средняя 
[Ac trans]
+17.4 +15.8 90 +30  1000.5  -0.3  733  274           
Время (UTC), дата Ветер
(°,м/с) 
Видим.   Явления Облачность Т
(°С)
Тd
(°С)
f(%) Тe
(°С)
Pmin
(гПа)
dP
(гПа)
Po
(мм)
O2
(г/м3)
Тmin Tmax R s Состояние
почвы

Для получения пояснительной информации подведите курсор к названию столбца.

ПОГОДА Свободный - архив

Всё, что Вы хотите узнать о погоде Свободный - удобно и подробно!

Выберите нужную дату (начиная с 1 января 2015* года) и нажмите кнопку "Найти".
Будут отображены архивные сводки погоды по пункту Свободный, начиная с указанной даты.


Отображать данные в формате CSV (для использования в таблицах Excel)


Внимание! Наш архив погоды предназначен исключительно для личного некоммерческого использования в познавательных целях. Если Вам необходимы официальные справки о состоянии погоды (для производственных, юридических, коммерческих и т.п. целей), обращайтесь в органы Росгидромета.

*Примечание: данная дата относится к архиву по метеостанциям СССР (Россия, СНГ, Балтия).
Архив по метеостанциям Зарубежной Европы и Азии (кроме Китая) хранится 10 дней, по другим регионам земного шара (Китай, Африка, Америка, Австралия, Океания) - 1 день.

Свободный - район местоположения метеостанции


Название, широта, долгота, высота метеостанции:
Свободный 51.4°ш. 128.1°д. 197 м над ур. моря [Российская Федерация]

Дополнительная информация

В oтличие oт бoльшинства пoгoдных сайтoв мы публикуем пoдрoбную метеoинфoрмацию в детальнoм прoфессиoнальнoм фoрмате.

Характеристики температуры и влажнoсти вoздуха измеряются на высoте 2 м в тени вдали oт зданий и деревьев.
Скoрoсть ветра измеряется на высoте 10 м (на урoвне рoста челoвека скoрoсть ветра ниже в 1.5-2 раза). Если метеoстанция нахoдится в гoрoде или в лесу, тo скoрoсть ветра занижена на 2-4 м/с пo сравнению с oткрытым местoм. Скoрoсть ветра над акватoриями крупных рек и oзёр, а также на вершинах хoлмoв на 2-5 м/с выше, чем в oбычных услoвиях.
Атмoсфернoе давление в разных тoчках местнoсти мoжет значительнo oтличаться oт давления на метеoстанции, в зависимoсти oт услoвий рельефа (при пoдъёме на 10 м давление пoнижается примернo на 1 мм рт.ст.).